Location: Grust
(42.8833°N, 0.0333°W)
Time: 20:05:38
(UTC+00:00)

Cosmos 2228 - Pass Details

Date: 25 October 2020
Orbit: 590 x 617 km, 82.5° (Epoch: 23 November)

Event Time Altitude Azimuth Distance (km) Brightness Sun altitude
Rises 18:08:44 0° 197° (SSW) 2,809 6.7 -12.9°
Reaches altitude 10° 18:10:57 10° 201° (SSW) 1,914 5.9 -13.3°
Maximum altitude 18:15:06 56° 280° (W) 706 3.7 -14.1°
Drops below altitude 10° 18:19:19 10° 360° (N) 1,939 5.6 -14.8°
Sets 18:21:35 0° 5° (N) 2,850 6.4 -15.3°
